Location: Boiro
(42.6475°N, 8.8834°W)
Time: 08:08:06
(UTC+01:00)

Vanguard 3 - Pass Details

Date: 30 November 2021
Orbit: 508 x 3260 km, 33.3° (Epoch: 24 January)

Event Time Altitude Azimuth Distance (km) Brightness Sun altitude
Rises 12:35:59 0° 276° (W) 5,742 11.3 24.7°
Reaches altitude 10° 12:41:53 10° 260° (W) 4,127 10.8 24.9°
Maximum altitude 12:47:55 17° 225° (SW) 2,906 10.6 25.1°
Drops below altitude 10° 12:52:24 10° 186° (S) 2,906 11.6 25.2°
Sets 12:55:34 0° 165° (SSE) 3,486 11.7 25.3°
